This demonstration page uses our WeatherBlox Daily Observations layout. Learn more.

Left ArrowRight Arrow

44.8408, -93.29828

Hourly Observations for March 7, 2020

Temp ( °F °C ) Dew Point ( °F °C ) Humidity (%) Winds ( mph kmh ) Pressure ( in mb ) Visibility ( mi km ) Precip ( " mm )
12:53 am 00:53 Clear 33 0.6 20 -6.7 58 58 S 15 24 30.32 1027 10 16 0.00 0.00
1:53 am 01:53 Clear 34 1.1 20 -6.7 56 56 S 10 17 30.29 1026 10 16 0.00 0.00
2:53 am 02:53 Clear 33 0.6 20 -6.7 58 58 SSE 8 13 30.27 1025 10 16 0.00 0.00
3:53 am 03:53 Clear 33 0.6 19 -7.2 56 56 SSE 9 15 30.24 1024 10 16 0.00 0.00
4:53 am 04:53 Clear 33 0.6 19 -7.2 56 56 SSE 10 17 30.21 1023 10 16 0.00 0.00
5:53 am 05:53 Clear 35 1.7 19 -7.2 52 52 SSE 12 19 30.18 1022 10 16 0.00 0.00
6:53 am 06:53 Mostly Sunny 37 2.8 20 -6.7 50 50 S 13 20 30.17 1022 10 16 0.00 0.00
7:53 am 07:53 Mostly Sunny 39 3.9 20 -6.7 46 46 S 13 20 30.16 1021 10 16 0.00 0.00
8:53 am 08:53 Partly Cloudy 42 5.6 21 -6.1 43 43 S 15 24 30.15 1021 10 16 0.00 0.00
9:53 am 09:53 Partly Cloudy 44 6.7 23 -5 43 43 S 14 22 30.14 1021 10 16 0.00 0.00
10:53 am 10:53 Partly Cloudy 48 8.9 24 -4.4 39 39 S 14 22 30.13 1020 10 16 0.00 0.00
11:53 am 11:53 Partly Cloudy 50 10 24 -4.4 36 36 SSW 13 20 30.10 1019 10 16 0.00 0.00
12:53 pm 12:53 Mostly Sunny 51 10.6 26 -3.3 38 38 SSW 17 28 30.08 1019 10 16 0.00 0.00
1:53 pm 13:53 Mostly Sunny 52 11.1 27 -2.8 38 38 S 16 26 30.06 1018 10 16 0.00 0.00
2:53 pm 14:53 Mostly Sunny 53 11.7 29 -1.7 40 40 SSE 15 24 30.04 1017 10 16 0.00 0.00
3:53 pm 15:53 Mostly Cloudy 50 10 30 -1.1 46 46 SE 13 20 30.02 1017 10 16 0.00 0.00
4:53 pm 16:53 Partly Cloudy 50 10 31 -0.6 48 48 SSE 13 20 30.01 1016 10 16 0.00 0.00
5:53 pm 17:53 Partly Cloudy 49 9.4 31 -0.6 50 50 SSE 13 20 29.99 1016 10 16 0.00 0.00
6:53 pm 18:53 Mostly Clear 48 8.9 32 0 54 54 SSE 13 20 29.98 1015 10 16 0.00 0.00
7:53 pm 19:53 Mostly Clear 47 8.3 31 -0.6 54 54 SSE 15 24 29.96 1015 10 16 0.00 0.00
8:53 pm 20:53 Mostly Clear 49 9.4 30 -1.1 48 48 S 18 30 29.95 1014 10 16 0.00 0.00
9:53 pm 21:53 Clear 49 9.4 29 -1.7 46 46 S 13 20 29.95 1014 10 16 0.00 0.00
10:53 pm 22:53 Clear 51 10.6 26 -3.3 38 38 S 16 26 29.93 1013 10 16 0.00 0.00
11:53 pm 23:53 Clear 50 10 26 -3.3 39 39 S 14 22 29.92 1013 10 16 0.00 0.00

Powered by AerisWeather